Weather History for Lacon, IL

Change the Weather History Date:

Saturday, April 27, 2013

  Actual Average (KPIA) Record (KPIA)
Temperature  
Mean Temperature 54 °F 56 °F  
Max Temperature 65 °F 67 °F 86 °F (1956)
Min Temperature 43 °F 46 °F 30 °F (1932)
Degree Days  
Heating Degree Days 12 9  
Month to date heating degree days 369  
Since 1 July heating degree days 5641  
Cooling Degree Days 0 1  
Month to date cooling degree days 10  
Year to date cooling degree days 11  
Growing Degree Days 4 (Base 50)    
Moisture  
Dew Point 46 °F    
Average Humidity 73    
Maximum Humidity 95    
Minimum Humidity 46    
Precipitation  
Precipitation 0.00 in 0.13 in 1.54 in (2002)
Month to date precipitation 3.24  
Year to date precipitation 9.61  
Snow  
Snow 0.00 in 0.00 in 0.00 in ()
Month to date snowfall 0.6  
Since 1 July snowfall 24.6  
Snow Depth -    
Sea Level Pressure  
Sea Level Pressure 30.15 in    
Wind  
Wind Speed 5 mph (SE)    
Max Wind Speed 13 mph    
Max Gust Speed 18 mph    
Visibility 10 miles    
Events Rain    
T = Trace of Precipitation, MM = Missing Value Source: NWS Daily Summary

Daily Weather History Graph

Daily Weather History Graph

Search for Another Location

Airport:

Trip Planner

Search our weather history database for the weather conditions in past years. The results will help you decide how hot, cold, wet, or windy it might be!

Date:

Astronomy

Apr. 27, 2013 Rise Set
Actual Time 6:00 AM CDT 7:50 PM CDT
Civil Twilight 5:31 AM CDT 8:20 PM CDT
Nautical Twilight 4:55 AM CDT 8:56 PM CDT
Astronomical Twilight 4:16 AM CDT 9:34 PM CDT
Moon 10:20 PM CDT (4/27) 7:18 AM CDT (4/27)
Length of Visible Light 14h 49m
Length of Day
13h 49m
Waning Gibbous, 95% of the Moon is Illuminated
Apr 27
Waning Gibbous
May 2
Last Quarter
May 9
New
May 17
First Quarter
May 24
Full

Hourly Weather History & Observations

Time (CDT) Temp. Windchill Dew Point Humidity Pressure Visibility Wind Dir Wind Speed Gust Speed Precip Events Conditions
12:15 AM 50.0 °F - 44.2 °F 81% 30.30 in 10.0 mi South 4.6 mph - N/A   Clear
12:35 AM 49.5 °F - 44.1 °F 82% 30.29 in 10.0 mi South 4.6 mph - N/A   Clear
12:55 AM 49.1 °F - 43.9 °F 82% 30.29 in 10.0 mi South 4.6 mph - N/A   Clear
1:15 AM 48.2 °F - 43.7 °F 84% 30.29 in 10.0 mi South 4.6 mph - N/A   Clear
1:35 AM 48.2 °F - 43.7 °F 84% 30.28 in 10.0 mi South 3.5 mph - N/A   Clear
1:55 AM 47.8 °F - 43.7 °F 86% 30.28 in 10.0 mi Calm Calm - N/A   Mostly Cloudy
2:15 AM 50.0 °F - 44.6 °F 82% 30.27 in 10.0 mi Calm Calm - N/A   Overcast
2:35 AM 50.0 °F - 44.6 °F 82% 30.26 in 10.0 mi Calm Calm - N/A   Scattered Clouds
2:55 AM 46.9 °F - 43.0 °F 86% 30.26 in 10.0 mi Calm Calm - N/A   Clear
3:15 AM 48.4 °F - 43.9 °F 84% 30.26 in 10.0 mi Calm Calm - N/A   Clear
3:35 AM 45.3 °F 44.0 °F 42.4 °F 90% 30.26 in 10.0 mi SSE 3.5 mph - N/A   Clear
3:55 AM 44.1 °F - 41.4 °F 90% 30.25 in 10.0 mi Calm Calm - N/A   Clear
4:15 AM 43.2 °F 40.5 °F 41.5 °F 94% 30.26 in 10.0 mi SSE 4.6 mph - N/A   Clear
4:35 AM 45.9 °F 43.6 °F 43.0 °F 90% 30.25 in 10.0 mi SE 4.6 mph - N/A   Clear
4:55 AM 46.0 °F 43.9 °F 43.2 °F 90% 30.25 in 10.0 mi SE 4.6 mph - N/A   Clear
5:15 AM 44.6 °F - 42.4 °F 92% 30.24 in 10.0 mi Calm Calm - N/A   Clear
6:35 AM 44.4 °F 42.9 °F 42.8 °F 94% 30.25 in 5.0 mi SE 3.5 mph - N/A   Scattered Clouds
6:55 AM 45.5 °F - 43.2 °F 92% 30.25 in 7.0 mi Calm Calm - N/A   Scattered Clouds
7:15 AM 46.9 °F - 44.1 °F 90% 30.25 in 7.0 mi SE 3.5 mph - N/A   Clear
7:35 AM 48.2 °F - 44.8 °F 88% 30.24 in 10.0 mi SE 4.6 mph - N/A   Clear
7:55 AM 48.9 °F - 45.1 °F 87% 30.24 in 10.0 mi SE 3.5 mph - N/A   Clear
8:15 AM 51.6 °F - 46.4 °F 82% 30.23 in 10.0 mi Calm Calm - N/A   Clear
8:35 AM 52.9 °F - 46.6 °F 79% 30.21 in 10.0 mi Calm Calm - N/A   Clear
8:55 AM 53.6 °F - 45.9 °F 75% 30.21 in 10.0 mi SE 3.5 mph - N/A   Clear
9:15 AM 55.6 °F - 46.4 °F 71% 30.21 in 10.0 mi Calm Calm - N/A   Clear
9:35 AM 55.6 °F - 45.3 °F 68% 30.21 in 10.0 mi SE 6.9 mph - N/A   Clear
9:55 AM 56.3 °F - 46.2 °F 69% 30.21 in 10.0 mi SE 8.1 mph - N/A   Clear
10:15 AM 57.2 °F - 46.9 °F 69% 30.21 in 10.0 mi East 8.1 mph - N/A   Clear
10:35 AM 57.4 °F - 45.7 °F 65% 30.21 in 10.0 mi SE 10.4 mph 16.1 mph N/A   Clear
10:55 AM 58.1 °F - 46.2 °F 65% 30.21 in 10.0 mi SE 8.1 mph 17.3 mph N/A   Scattered Clouds
11:15 AM 59.5 °F - 46.0 °F 61% 30.21 in 10.0 mi SE 10.4 mph - N/A   Scattered Clouds
11:35 AM 60.3 °F - 46.0 °F 59% 30.20 in 10.0 mi ESE 10.4 mph - N/A   Scattered Clouds
11:55 AM 61.2 °F - 45.5 °F 56% 30.19 in 10.0 mi SSE 11.5 mph - N/A   Scattered Clouds
12:15 PM 61.0 °F - 43.9 °F 53% 30.18 in 10.0 mi East 5.8 mph 16.1 mph N/A   Scattered Clouds
12:35 PM 63.5 °F - 46.4 °F 54% 30.17 in 10.0 mi SE 12.7 mph 18.4 mph N/A   Scattered Clouds
12:55 PM 62.6 °F - 44.6 °F 52% 30.16 in 10.0 mi SE 9.2 mph 17.3 mph N/A   Mostly Cloudy
1:15 PM 62.2 °F - 44.6 °F 52% 30.15 in 10.0 mi SE 10.4 mph - N/A   Overcast
1:35 PM 62.6 °F - 44.6 °F 52% 30.14 in 10.0 mi SE 10.4 mph - N/A   Overcast
1:55 PM 63.1 °F - 44.2 °F 50% 30.13 in 10.0 mi SE 11.5 mph 16.1 mph N/A   Overcast
2:15 PM 62.6 °F - 43.5 °F 50% 30.12 in 10.0 mi SE 10.4 mph - N/A   Overcast
2:35 PM 63.9 °F - 43.7 °F 48% 30.11 in 10.0 mi SE 11.5 mph 16.1 mph N/A   Overcast
2:55 PM 64.2 °F - 43.9 °F 48% 30.10 in 10.0 mi SE 8.1 mph - N/A   Scattered Clouds
3:15 PM 64.8 °F - 44.4 °F 48% 30.09 in 10.0 mi South 12.7 mph 18.4 mph N/A   Scattered Clouds
3:35 PM 63.9 °F - 43.0 °F 47% 30.08 in 10.0 mi SE 9.2 mph - N/A   Mostly Cloudy
3:55 PM 63.7 °F - 42.3 °F 46% 30.08 in 10.0 mi SSE 6.9 mph - N/A   Mostly Cloudy
4:15 PM 63.5 °F - 42.3 °F 46% 30.07 in 10.0 mi SE 6.9 mph - N/A   Mostly Cloudy
4:35 PM 63.7 °F - 43.7 °F 48% 30.06 in 10.0 mi SE 10.4 mph - N/A   Mostly Cloudy
4:55 PM 62.8 °F - 43.2 °F 49% 30.06 in 10.0 mi SE 12.7 mph - N/A   Overcast
5:15 PM 62.4 °F - 43.7 °F 50% 30.06 in 10.0 mi SSE 11.5 mph - N/A   Overcast
5:35 PM 60.3 °F - 45.5 °F 58% 30.06 in 10.0 mi South 6.9 mph - N/A   Overcast
5:55 PM 59.7 °F - 45.7 °F 60% 30.05 in 10.0 mi South 10.4 mph - N/A   Overcast
6:15 PM 58.5 °F - 46.9 °F 66% 30.06 in 10.0 mi South 12.7 mph - N/A   Overcast
6:35 PM 57.2 °F - 47.8 °F 71% 30.05 in 10.0 mi South 9.2 mph - N/A   Overcast
6:55 PM 56.8 °F - 48.2 °F 73% 30.05 in 10.0 mi SSE 8.1 mph - N/A   Overcast
7:15 PM 56.3 °F - 49.3 °F 77% 30.05 in 10.0 mi South 6.9 mph - N/A   Overcast
7:35 PM 56.3 °F - 49.3 °F 77% 30.04 in 10.0 mi SSE 4.6 mph - N/A   Overcast
7:55 PM 55.6 °F - 49.3 °F 79% 30.03 in 10.0 mi SE 3.5 mph - N/A   Overcast
8:15 PM 55.4 °F - 49.5 °F 80% 30.03 in 10.0 mi Calm Calm - N/A   Overcast
8:35 PM 55.4 °F - 49.5 °F 80% 30.02 in 10.0 mi Calm Calm - N/A   Overcast
8:55 PM 54.9 °F - 49.6 °F 83% 30.02 in 10.0 mi Calm Calm - N/A   Overcast
9:15 PM 54.7 °F - 49.8 °F 84% 30.02 in 10.0 mi East 3.5 mph - N/A   Overcast
9:35 PM 53.8 °F - 50.2 °F 88% 30.02 in 10.0 mi SE 4.6 mph - N/A   Light Drizzle
9:55 PM 53.2 °F - 50.4 °F 90% 30.02 in 10.0 mi SE 4.6 mph - N/A   Overcast
10:15 PM 52.7 °F - 50.2 °F 91% 30.02 in 10.0 mi SE 4.6 mph - N/A   Overcast
10:35 PM 52.7 °F - 50.2 °F 91% 30.01 in 10.0 mi Calm Calm - N/A   Overcast
10:55 PM 52.2 °F - 50.0 °F 92% 30.00 in 10.0 mi Calm Calm - N/A   Light Drizzle
11:15 PM 52.2 °F - 50.2 °F 93% 30.00 in 10.0 mi Calm Calm - N/A   Overcast
11:35 PM 52.3 °F - 50.5 °F 94% 30.00 in 7.0 mi East 3.5 mph - N/A   Light Drizzle
11:55 PM 52.3 °F - 50.9 °F 95% 29.99 in 7.0 mi Calm Calm - N/A Rain Rain